Theta_e
315 313 311 314 318 318 316 315 315 316 318 316 315 317 321 326 328 328 332 335 337 339 344 347 350 352 352 355 356 357 356 358 356 362 357 352 351 349 348 348 351 353 352 353
311 307 313 316 317 316 315 314 314 317 318 317 315 315 319 325 325 326 330 332 335 339 341 346 350 353 353 355 355 356 356 358 360 358 355 353 356 350 355 352 351 350 350 353
309 311 314 312 311 312 313 313 313 312 316 317 314 313 316 321 324 327 330 332 335 336 339 344 349 352 354 354 355 357 359 358 357 355 355 354 351 352 347 349 353 349 349 353
311 314 310 309 308 312 309 315 313 312 312 307 316 305 315 318 320 324 329 331 332 333 337 343 349 350 353 354 356 359 359 357 354 354 354 347 342 339 343 343 347 354 349 350
310 310 309 308 309 312 311 314 312 312 311 310 310 307 311 319 316 318 324 329 331 335 338 343 347 350 351 352 353 356 358 354 352 350 350 342 341 345 348 351 349 350 352 350
312 315 313 312 313 313 315 312 311 311 309 303 309 308 308 313 315 320 325 329 332 339 342 347 347 349 351 352 350 350 353 353 350 348 348 342 341 340 345 347 347 349 351 352
311 311 314 314 311 314 314 310 302 301 301 301 312 309 310 317 324 323 328 331 335 341 344 345 344 347 348 347 345 346 348 349 347 346 344 344 346 345 343 345 347 343 346 348
306 304 311 313 311 309 310 310 303 298 299 302 312 305 313 324 329 329 330 332 337 338 344 342 337 345 344 343 345 341 347 345 345 345 343 346 344 341 344 346 346 344 345 348
307 306 314 315 314 312 310 306 311 306 308 304 308 311 322 325 325 329 329 330 334 337 342 339 340 342 342 344 343 342 345 345 343 343 344 345 340 339 344 344 346 349 347 347
312 305 312 313 314 314 311 315 305 306 300 299 303 307 311 318 323 328 328 330 335 339 341 341 340 340 342 343 345 344 343 344 342 343 344 345 343 338 345 345 344 345 345 347
313 310 309 312 310 309 309 308 311 310 308 301 300 306 314 317 326 328 331 333 337 339 339 339 338 342 341 341 343 343 343 342 342 344 345 344 342 336 342 342 342 345 346 346
314 311 306 308 314 315 313 310 311 305 305 308 307 307 322 326 328 329 333 334 338 340 340 337 339 342 340 341 342 342 341 341 342 344 344 343 342 339 339 344 342 346 344 345
314 308 305 306 311 313 310 312 312 312 312 308 299 305 319 322 327 329 334 335 338 341 342 343 341 341 341 342 343 337 338 342 344 345 342 344 342 342 343 342 343 344 342 343
322 313 309 304 307 311 308 309 312 311 306 308 308 309 317 323 326 332 335 338 340 343 343 342 342 342 342 345 345 342 341 341 344 343 342 341 342 343 343 345 345 344 343 341
321 312 312 312 311 313 310 309 309 309 310 307 309 310 316 318 329 333 337 338 338 340 340 339 341 342 343 343 345 345 345 342 343 343 343 340 341 343 343 344 344 344 343 342
322 313 314 310 311 311 309 311 311 311 311 311 312 312 316 319 333 334 336 335 335 337 338 339 339 340 339 342 343 344 345 345 343 341 340 341 341 341 342 340 340 341 341 342
316 315 311 307 312 310 306 310 311 311 313 313 309 319 328 328 329 331 333 335 336 336 335 335 337 337 337 338 341 343 344 346 344 341 341 341 339 338 341 342 341 342 342 343
318 316 313 307 309 299 313 321 319 314 315 317 321 324 325 329 330 331 332 335 334 334 333 333 334 335 336 337 338 339 341 344 343 341 340 341 341 339 340 340 342 343 343 339
319 316 309 304 304 308 312 316 316 315 315 321 322 325 328 331 330 327 332 333 333 332 331 331 332 333 333 333 334 334 336 340 345 339 341 341 343 341 340 340 338 336 335 331
317 319 311 307 301 299 310 322 324 324 311 325 325 326 328 329 320 321 329 331 329 329 329 328 328 327 326 324 329 335 336 338 342 338 338 342 335 328 322 322 325 330 328 325
310 311 306 304 303 307 321 321 322 308 314 326 326 328 329 327 327 327 328 329 328 327 326 324 322 320 321 321 321 319 320 321 325 324 321 319 317 316 314 314 315 321 319 317
310 306 305 306 303 299 322 319 311 326 329 327 328 333 328 327 326 326 326 325 324 323 322 319 317 316 316 317 314 311 311 313 315 315 315 313 312 310 310 308 308 308 306 304
306 312 310 313 313 326 327 330 332 333 330 330 331 330 328 325 324 324 322 321 320 319 316 315 314 313 313 313 312 308 309 310 311 309 308 308 308 308 309 307 306 305 305 303
316 321 314 314 320 324 326 328 331 331 329 330 331 329 327 325 324 322 320 320 317 315 313 312 311 311 310 312 311 310 310 310 309 308 308 310 309 310 311 310 310 308 306 304
313 314 314 313 321 324 326 328 329 329 330 329 329 328 325 324 323 321 321 318 315 313 313 312 311 311 311 314 314 315 315 314 312 312 310 309 309 307 305 305 303 301 301 302
311 312 311 309 321 322 325 329 329 327 326 326 324 324 324 323 321 321 318 317 315 313 313 311 312 313 313 314 314 317 317 314 312 309 308 306 304 303 302 301 300 297 297 295
Wind_Speed
15 12 16 17 16 16 16 12 10 1 3 8 12 5 9 8 10 8 8 10 9 11 14 16 14 12 11 10 10 10 10 10 8 4 5 6 6 8 6 7 10 10 11 13
10 17 17 14 13 13 14 12 13 12 4 8 12 13 12 13 10 6 10 8 11 10 10 12 12 11 11 10 9 10 10 10 7 5 5 4 4 6 6 4 9 12 13 13
17 3 14 15 13 14 14 14 12 13 9 10 14 17 19 3 7 4 3 5 10 9 13 13 9 9 9 8 10 11 10 10 5 4 4 4 3 5 6 6 6 10 13 12
14 18 9 10 16 14 14 14 11 12 10 13 8 12 9 17 9 12 9 7 8 7 6 8 11 9 8 8 7 7 7 3 1 3 6 3 4 5 4 5 6 8 12 11
13 12 15 14 14 15 13 2 7 11 14 14 13 8 3 11 8 8 8 8 6 5 6 11 10 9 7 6 6 8 5 2 2 1 4 4 6 5 6 7 9 8 8 11
18 3 9 14 11 11 12 5 9 11 12 14 15 15 5 5 3 7 4 5 7 7 11 15 10 6 6 6 5 4 5 4 2 3 4 2 8 7 6 6 6 6 6 6
16 16 13 10 13 13 13 12 10 10 13 15 8 6 7 4 6 1 8 8 9 10 13 13 10 7 5 6 5 2 5 3 2 3 4 4 8 7 9 7 3 6 5 6
14 15 20 14 15 10 18 15 12 13 5 5 8 9 3 9 11 6 4 6 11 10 16 11 10 7 7 7 5 2 7 3 1 2 3 6 7 6 5 5 3 4 3 4
10 12 3 19 16 18 13 17 19 19 13 11 14 6 14 10 8 8 8 8 8 10 16 12 12 10 7 7 6 4 6 3 2 2 2 2 5 5 5 5 4 2 3 3
10 13 10 13 12 19 19 13 14 11 15 13 11 9 1 14 13 11 9 8 9 9 16 13 11 11 7 6 5 4 3 5 1 2 0 4 4 6 5 8 6 7 5 5
16 7 8 12 12 14 12 13 14 17 12 12 12 3 13 20 13 14 10 10 11 11 13 10 11 8 6 6 5 3 5 4 1 5 2 3 7 4 4 6 7 6 6 6
16 10 13 14 16 17 16 18 18 11 13 8 11 8 8 8 9 13 13 9 11 13 9 12 10 10 7 6 5 7 2 5 3 3 1 3 6 5 2 5 5 4 8 6
14 9 12 15 13 7 10 16 18 18 14 6 10 14 8 9 9 10 13 9 8 13 12 9 7 7 5 5 5 8 7 3 4 3 2 1 5 4 4 5 5 5 5 7
6 11 15 12 8 5 18 17 15 12 12 14 10 5 7 12 18 16 13 11 10 9 9 9 7 5 4 2 6 5 8 4 7 2 4 3 5 4 4 5 4 5 7 8
9 14 13 18 11 9 9 15 18 18 18 17 5 6 8 13 11 16 15 14 11 10 9 8 6 5 5 5 2 4 4 4 3 8 10 6 4 4 6 6 7 7 7 5
12 12 15 18 14 9 10 13 15 14 18 16 15 13 26 33 15 15 15 13 12 11 10 6 4 1 2 5 6 4 6 5 5 5 5 7 5 5 7 7 8 8 8 6
14 11 14 15 14 19 14 15 17 18 16 16 9 8 18 15 14 12 11 12 14 12 6 3 1 2 4 4 5 8 4 5 6 7 8 9 6 6 8 7 7 6 8 7
10 12 13 14 14 17 1 5 11 8 12 9 2 0 11 14 12 11 9 13 10 8 5 3 4 5 7 9 9 9 10 9 5 8 10 9 9 8 7 6 8 8 7 10
13 12 12 14 13 13 8 4 3 5 10 7 4 7 18 20 17 11 8 7 7 6 5 5 7 7 8 9 9 9 8 10 9 7 9 9 9 7 7 8 8 8 10 10
14 11 13 13 16 19 10 11 4 2 7 6 7 11 18 16 9 8 10 9 7 6 6 5 7 8 8 9 10 8 6 9 9 1 8 12 14 11 12 10 10 9 9 11
15 14 17 15 14 9 13 7 2 9 5 5 2 7 12 10 6 15 10 8 8 6 6 7 7 7 8 9 8 8 10 9 11 13 16 15 14 14 12 10 10 9 10 11
16 7 14 16 17 19 8 5 6 9 5 4 6 15 16 15 15 13 10 8 8 8 7 8 7 8 9 9 8 10 12 9 11 13 15 15 13 11 10 12 10 12 12 11
2 4 7 8 6 7 6 9 6 7 7 6 8 11 13 13 12 11 10 9 8 7 7 7 7 9 9 10 9 12 10 10 11 14 15 14 13 12 11 11 11 9 9 7
7 6 12 6 7 8 7 6 7 5 8 7 9 11 10 12 11 11 9 8 8 7 7 7 8 9 11 10 11 12 12 12 14 16 15 14 13 13 11 9 8 7 8 7
3 7 14 4 10 7 6 8 13 10 8 9 9 10 11 12 12 11 10 9 8 8 8 7 8 9 10 9 11 10 11 12 14 15 14 12 11 13 13 12 8 8 7 5
7 6 9 4 6 10 16 11 13 12 10 9 11 11 10 12 11 11 10 11 9 10 9 10 10 12 11 11 10 11 12 14 15 16 12 11 11 11 10 10 12 17 13 13
Wind_Direction
198 215 223 234 221 271 300 295 308 226 256 285 263 328 259 156 208 200 193 174 195 207 198 183 192 207 191 188 194 204 199 195 204 199 202 221 222 260 291 304 261 202 216 225
189 233 241 241 258 249 254 258 256 251 223 255 272 273 259 172 216 251 179 211 188 191 218 188 179 198 203 189 201 208 213 202 203 219 216 229 239 263 264 233 251 253 216 223
231 186 218 239 235 244 236 250 247 255 188 244 260 257 248 360 179 191 237 227 197 207 190 194 167 200 200 205 200 215 207 223 211 234 234 232 259 246 243 243 241 231 228 215
232 251 191 229 234 232 244 218 256 276 261 264 182 289 164 220 184 180 204 213 218 191 191 166 164 185 197 200 202 201 214 132 189 263 277 311 253 266 245 244 235 228 224 214
218 220 236 231 227 223 250 162 263 254 251 259 267 242 211 191 235 215 178 168 212 124 198 142 158 154 184 182 173 119 97 110 116 267 297 293 297 316 283 251 244 233 218 208
257 169 256 230 217 225 244 209 237 241 249 245 227 254 284 38 241 82 106 150 138 135 124 118 112 128 167 131 96 94 118 72 338 322 299 276 281 279 276 249 231 221 203 201
219 226 224 237 221 194 222 199 220 214 221 235 132 233 284 131 96 63 146 164 146 129 123 124 138 151 159 106 66 58 78 82 4 21 40 319 306 315 308 283 222 181 198 191
209 211 206 186 233 197 206 223 243 221 282 175 186 232 129 69 131 159 185 172 130 167 123 132 112 183 129 118 107 100 76 50 170 147 337 348 20 339 358 3 152 196 188 195
242 242 138 194 206 240 182 225 246 277 280 266 190 195 150 124 155 151 175 166 157 169 128 155 154 144 143 120 124 71 102 74 81 176 285 344 39 358 25 9 40 152 162 180
258 268 168 202 223 215 248 192 229 238 263 276 231 263 344 179 166 157 158 164 155 165 138 165 139 127 124 127 116 124 103 118 39 318 106 37 82 19 61 50 59 75 88 111
234 234 207 145 216 206 207 227 236 244 232 276 259 209 111 286 145 154 155 157 158 168 160 147 125 127 127 109 109 138 116 110 154 325 315 69 105 84 5 69 58 79 94 103
220 228 251 193 206 220 232 209 236 245 228 280 356 8 156 55 135 142 142 158 166 160 159 123 134 159 161 140 116 113 42 136 138 282 280 120 129 139 15 102 116 62 93 96
206 232 233 249 206 195 248 250 216 228 256 252 140 249 221 119 168 146 134 144 157 122 129 143 148 147 145 108 104 73 258 133 159 222 213 172 177 164 163 151 126 117 107 122
313 224 231 225 271 265 197 244 226 239 241 242 197 292 280 191 145 133 131 139 111 132 148 168 157 147 169 114 128 176 256 245 148 183 253 174 173 156 166 154 170 125 145 133
235 239 243 260 268 271 283 197 234 224 242 258 251 286 262 7 135 131 129 123 140 152 179 139 170 177 208 236 177 188 216 210 209 173 234 156 135 164 130 119 118 105 119 121
213 237 260 269 246 232 254 265 273 262 236 252 285 313 114 211 122 129 140 145 157 151 114 113 80 54 329 316 305 238 190 214 198 230 211 147 161 134 125 124 123 128 122 124
228 235 248 248 240 247 219 235 243 245 261 274 270 56 116 125 124 122 134 157 130 127 139 169 191 318 328 309 305 295 292 211 227 201 208 157 192 164 161 160 169 139 125 121
261 233 260 256 239 235 6 39 328 288 256 260 92 176 152 124 108 116 126 105 125 140 133 87 7 353 352 343 328 326 308 286 237 206 205 173 186 180 189 166 96 84 78 63
253 262 229 256 252 259 140 177 160 237 257 220 232 164 126 111 109 86 99 126 102 87 66 26 3 349 341 334 321 291 263 260 233 218 192 181 121 103 87 75 87 86 88 80
223 232 269 248 239 246 283 80 47 74 240 120 195 176 143 157 192 137 154 139 119 84 56 29 11 12 4 349 335 311 277 251 224 96 70 88 94 86 71 54 48 61 76 81
210 227 229 235 254 249 103 111 131 237 67 36 265 160 165 176 46 132 139 116 101 92 71 50 41 28 14 14 27 39 57 50 70 76 80 77 76 79 73 64 43 58 74 86
231 233 225 229 228 226 89 187 263 70 81 60 76 71 89 108 118 129 127 119 112 94 73 56 55 46 35 44 61 61 57 59 79 87 89 86 84 85 82 83 76 73 74 69
164 213 301 351 53 66 29 69 79 100 101 101 109 109 121 127 128 126 124 123 95 86 77 65 69 66 56 54 68 80 68 71 79 84 83 86 87 86 93 90 85 87 76 78
347 201 246 135 137 101 120 122 112 101 99 118 104 125 132 127 125 122 127 112 105 101 98 89 84 78 78 75 81 84 86 89 90 89 89 89 91 91 84 80 79 82 82 81
84 41 292 222 117 126 121 109 97 110 117 116 117 112 125 127 123 124 122 110 110 109 105 104 103 95 79 78 85 99 102 101 97 95 90 85 83 83 81 72 73 77 61 86
227 210 209 351 245 196 140 128 125 131 133 117 120 120 118 125 127 131 118 121 122 119 114 109 102 98 96 99 100 108 111 111 109 104 104 107 111 111 110 102 90 58 65 70